EW6612 Weather Reports


Display with metric or nautical units.
time (UTC)temp
F
wind
direction
speed
MPH
gust
MPH
rain 1hr
in
rain 24hr
in
rain mn
in
humidity
%
barometer
mb
20240223055545 51 346 0.0 1.0 0.00 0.48 0.12 83 1019.3
20240223055015 49 281 0.0 0.0 0.01 0.48 0.12 88 1018.8
20240223054541 52 324 0.0 1.0 0.00 0.48 0.12 83 1019.2
20240223053541 51 305 0.0 0.0 0.00 0.48 0.12 83 1019.1
20240223052544 51 298 0.0 0.0 0.01 0.48 0.12 85 1018.8
20240223051544 50 235 0.0 1.0 0.01 0.48 0.12 87 1018.7
20240223045548 49 270 0.0 0.0 0.01 0.48 0.12 89 1018.8
20240223044544 49 246 0.0 0.0 0.02 0.48 0.12 88 1018.8
20240223043546 49 262 0.0 0.0 0.04 0.48 0.12 88 1018.9
20240223042547 49 268 0.0 0.0 0.03 0.48 0.11 88 1019.0
20240223042147 52 305 0.0 0.0 0.00 0.45 0.09 80 1019.1
20240223041543 50 267 0.0 0.0 0.03 0.48 0.11 87 1019.2
20240223040541 51 317 0.0 0.0 0.03 0.48 0.11 86 1019.2
20240223040231 52 300 0.0 0.0 0.00 0.45 0.09 82 1019.3
20240223035542 51 288 0.0 6.0 0.03 0.48 0.11 84 1019.3
20240223034544 52 320 0.0 9.0 0.01 0.46 0.10 80 1019.4
20240223032539 52 298 0.0 0.0 0.00 0.45 0.09 81 1019.2
20240223030537 51 296 0.0 0.0 0.00 0.45 0.09 82 1019.3
20240223025537 50 333 0.0 0.0 0.01 0.45 0.09 84 1019.5
20240223024537 50 275 0.0 0.0 0.02 0.45 0.09 85 1019.5
20240223024004 50 323 0.0 10.0 0.02 0.44 0.08 84 1019.8
20240223023538 50 319 0.0 0.0 0.02 0.45 0.09 86 1019.7
20240223022540 49 311 0.0 0.0 0.03 0.45 0.09 87 1019.7
20240223021539 49 273 0.0 0.0 0.03 0.45 0.09 86 1019.9
20240223020539 49 281 0.0 0.0 0.03 0.45 0.09 84 1019.7
20240223015000 50 305 0.0 0.0 0.06 0.42 0.06 85 1020.1
20240223014536 50 301 0.0 14.0 0.02 0.43 0.07 85 1020.1
20240223013543 49 319 0.0 0.0 0.04 0.43 0.06 87 1020.0
20240223012535 50 281 0.0 0.0 0.06 0.42 0.06 86 1019.9
20240223011537 50 325 0.0 0.0 0.06 0.42 0.06 85 1020.1
20240223005532 51 271 0.0 11.0 0.06 0.42 0.06 84 1020.2
20240223005033 53 303 0.0 1.0 0.00 0.36 0.00 74 1020.2
20240223004530 51 263 0.0 11.0 0.06 0.42 0.06 82 1020.4
20240223003534 53 273 1.0 17.0 0.02 0.38 0.03 77 1020.5
20240223002535 53 308 0.0 12.0 0.00 0.36 0.00 75 1020.2
20240223001533 53 338 0.0 0.0 0.00 0.36 0.00 75 1020.2
20240223001210 53 286 0.0 2.0 0.00 0.36 0.36 73 1020.3
20240223000001 53 293 0.0 0.0 0.00 0.36 0.36 72 1020.2
20240222235528 53 310 0.0 4.0 0.00 0.36 0.36 75 1020.2
20240222234530 53 295 0.0 0.0 0.00 0.36 0.36 75 1020.2
20240222233527 53 290 0.0 1.0 0.00 0.36 0.36 74 1020.2
20240222230531 53 309 0.0 0.0 0.00 0.36 0.36 71 1020.1
20240222225529 53 289 0.0 2.0 0.00 0.36 0.36 70 1020.3
20240222224852 53 318 0.0 4.0 0.00 0.36 0.36 69 1020.2
20240222224526 53 288 0.0 8.0 0.00 0.36 0.36 69 1020.2
20240222223527 53 295 0.0 7.0 0.00 0.36 0.36 70 1020.3
20240222222528 53 302 0.0 3.0 0.00 0.36 0.36 69 1020.2
20240222221532 53 300 0.0 10.0 0.00 0.36 0.36 69 1020.2
20240222215529 53 355 0.0 7.0 0.00 0.36 0.36 71 1020.3
20240222214530 53 317 0.0 7.0 0.00 0.36 0.36 70 1020.2
20240222213525 54 291 1.0 13.0 0.00 0.36 0.36 68 1020.1
20240222212527 54 267 1.0 17.0 0.00 0.36 0.36 69 1020.2
20240222211523 54 310 0.0 9.0 0.00 0.36 0.36 72 1020.0
20240222210523 53 316 0.0 5.0 0.00 0.36 0.36 75 1020.1
20240222205522 53 306 0.0 5.0 0.00 0.36 0.36 79 1020.0
20240222204524 53 275 0.0 3.0 0.00 0.36 0.36 81 1020.0
20240222204231 54 345 1.0 16.0 0.00 0.36 0.36 83 1019.7
20240222203525 53 321 0.0 2.0 0.00 0.36 0.36 81 1020.1
20240222203250 54 294 0.0 13.0 0.00 0.36 0.36 83 1019.7
20240222202524 53 316 0.0 0.0 0.00 0.36 0.36 82 1020.1
20240222201522 53 355 0.0 4.0 0.00 0.36 0.36 83 1020.0
20240222200522 54 350 0.0 16.0 0.00 0.36 0.36 83 1020.0
20240222195144 55 345 0.0 8.0 0.00 0.36 0.36 82 1019.4
20240222193519 54 316 0.0 6.0 0.00 0.36 0.36 82 1019.8
20240222192530 54 312 0.0 9.0 0.00 0.36 0.36 83 1019.6
20240222191524 55 269 0.0 7.0 0.00 0.36 0.36 83 1019.5
20240222185525 54 313 0.0 8.0 0.00 0.36 0.36 83 1019.4
20240222184731 55 355 0.0 13.0 0.00 0.36 0.36 85 1019.1
20240222184522 54 0 0.0 3.0 0.00 0.36 0.36 84 1019.4
20240222183522 55 285 0.0 8.0 0.00 0.36 0.36 85 1019.4
20240222182519 55 331 0.0 0.0 0.00 0.36 0.36 86 1019.2
20240222181518 55 301 0.0 10.0 0.00 0.36 0.36 86 1019.2
20240222175515 55 328 1.0 13.0 0.00 0.36 0.36 83 1018.9
20240222174513 56 319 5.0 20.0 0.00 0.36 0.36 82 1019.0
20240222173520 57 292 1.0 18.0 0.00 0.36 0.36 82 1018.8
20240222172516 57 321 0.0 7.0 0.00 0.36 0.36 82 1018.8
20240222171641 58 295 1.0 14.0 0.00 0.36 0.36 87 1018.8
20240222171514 57 309 1.0 10.0 0.00 0.36 0.36 81 1018.8
20240222170514 58 310 1.0 12.0 0.00 0.36 0.36 82 1018.7
20240222165514 58 355 1.0 12.0 0.00 0.36 0.36 83 1018.7
20240222164512 58 309 0.0 11.0 0.00 0.36 0.36 86 1018.7
20240222162515 58 323 1.0 14.0 0.00 0.36 0.36 88 1018.7
20240222161512 58 334 0.0 1.0 0.00 0.36 0.36 90 1018.6
20240222160515 58 303 0.0 2.0 0.00 0.36 0.36 91 1018.7
20240222155515 58 317 0.0 2.0 0.02 0.36 0.36 92 1018.4
20240222154513 57 306 0.0 0.0 0.03 0.36 0.36 93 1018.4
20240222153621 57 309 6.0 23.0 0.24 0.35 0.35 92 1018.9
20240222153508 57 273 0.0 0.0 0.09 0.36 0.36 93 1018.5
20240222152510 56 302 0.0 0.0 0.10 0.36 0.36 93 1018.6
20240222151519 56 304 0.0 9.0 0.11 0.36 0.36 93 1018.6
20240222150512 56 319 0.0 18.0 0.14 0.36 0.36 92 1018.6
20240222144511 58 325 2.0 21.0 0.23 0.33 0.33 93 1018.6
20240222143511 59 287 0.0 11.0 0.17 0.28 0.28 93 1018.3
20240222142511 58 313 1.0 11.0 0.16 0.26 0.26 92 1018.4
20240222141510 58 340 1.0 13.0 0.15 0.25 0.25 92 1018.4
20240222140509 59 305 6.0 20.0 0.12 0.22 0.23 90 1018.5
20240222135507 62 302 4.0 18.0 0.00 0.10 0.11 91 1018.3
20240222134510 63 227 6.0 22.0 0.00 0.10 0.10 91 1017.9
20240222133505 63 236 2.0 22.0 0.00 0.10 0.10 93 1018.3
20240222132504 62 194 2.0 20.0 0.00 0.10 0.10 93 1018.5
20240222131506 62 279 0.0 16.0 0.01 0.10 0.10 93 1018.6
20240222130507 61 257 0.0 15.0 0.02 0.10 0.10 93 1018.8
20240222125512 61 203 2.0 18.0 0.02 0.10 0.10 93 1018.8
20240222125217 61 251 1.0 14.0 0.04 0.09 0.09 93 1019.6
20240222124507 61 207 2.0 18.0 0.03 0.10 0.10 93 1018.9
20240222123506 60 239 2.0 16.0 0.03 0.10 0.10 93 1019.2
20240222122506 61 262 1.0 15.0 0.04 0.10 0.10 93 1019.3
20240222122012 61 259 2.0 14.0 0.01 0.07 0.07 91 1020.2
20240222120500 61 217 2.0 24.0 0.03 0.09 0.09 93 1019.5
20240222115459 60 200 4.0 24.0 0.02 0.08 0.08 92 1019.9
20240222113459 61 269 0.0 11.0 0.01 0.07 0.07 90 1020.2
20240222112457 61 218 5.0 20.0 0.00 0.06 0.06 88 1020.2
20240222111457 61 217 0.0 13.0 0.00 0.06 0.06 88 1020.3
20240222110501 61 223 0.0 14.0 0.00 0.06 0.06 89 1020.4
20240222105459 61 244 1.0 14.0 0.00 0.06 0.06 89 1020.6
20240222104458 61 196 1.0 12.0 0.00 0.06 0.06 89 1020.7
20240222103458 61 313 0.0 0.0 0.00 0.06 0.06 90 1020.9
20240222102456 60 217 0.0 4.0 0.00 0.06 0.06 89 1021.1
20240222101455 60 224 0.0 0.0 0.00 0.06 0.06 90 1021.4
20240222100455 60 213 0.0 0.0 0.00 0.06 0.06 91 1021.4
20240222095550 59 254 0.0 3.0 0.00 0.06 0.06 91 1021.5
20240222095456 60 193 0.0 0.0 0.00 0.06 0.06 91 1021.3
20240222094458 60 213 0.0 0.0 0.00 0.06 0.06 90 1021.4
20240222093500 60 209 0.0 0.0 0.00 0.06 0.06 90 1021.5
20240222091456 59 255 0.0 0.0 0.01 0.06 0.06 92 1021.7
20240222090455 59 210 0.0 1.0 0.01 0.06 0.06 93 1021.9
20240222085454 59 254 0.0 1.0 0.01 0.06 0.06 93 1021.7
20240222084455 59 227 0.0 0.0 0.02 0.06 0.06 93 1021.7
20240222081500 59 243 0.0 12.0 0.04 0.05 0.05 94 1021.5
20240222080458 58 230 0.0 0.0 0.04 0.05 0.05 94 1021.4
20240222075458 58 269 0.0 1.0 0.05 0.05 0.05 94 1021.3
20240222074459 58 256 0.0 0.0 0.04 0.04 0.05 94 1021.2
20240222073454 58 238 0.0 1.0 0.04 0.04 0.04 94 1021.0
20240222072455 58 204 0.0 2.0 0.04 0.04 0.04 93 1021.2
20240222071454 58 222 0.0 2.0 0.01 0.01 0.01 93 1021.1
20240222070457 58 227 0.0 0.0 0.01 0.01 0.01 94 1021.3
20240222065453 57 237 0.0 0.0 0.00 0.00 0.00 93 1021.2
20240222064451 57 198 0.0 0.0 0.00 0.00 0.00 94 1021.4
20240222063451 57 206 0.0 0.0 0.00 0.00 0.00 94 1021.4
20240222062449 57 206 0.0 1.0 0.00 0.00 0.00 94 1021.3
20240222061451 57 227 0.0 0.0 0.00 0.00 0.00 94 1021.3
20240222060449 57 148 0.0 2.0 0.00 0.00 0.00 95 1021.2